When you browse on this site, cookies collect data to enhance your experience and personalize the content and advertising you see.
Visit our Privacy Policy to learn more. By continuing to use the site, you agree to this use of cookies and data.
  • In Latvia
  • List of Countries
  • For 7 days
  • Water Temperature
  • Weather Map
  • Weather Widgets
  • user-avatar
    Login

    Hourly Weather Bregenz

    Today, 19 August, Monday

    Time Temperature Precipitation Wind Pressure Humidity
    00:00 +13°C° 1.3 mm 1 mps 647 mmHg 92%
    01:00 +13°C° 1.3 mm 1 mps 648 mmHg 95%
    02:00 +13°C° 0.8 mm 1 mps 648 mmHg 95%
    03:00 +13°C° 0.8 mm 1 mps 648 mmHg 95%
    04:00 +13°C° 0.8 mm 2 mps 648 mmHg 95%
    05:00 +13°C° 1.3 mm 1 mps 648 mmHg 96%
    06:00 +12°C° 1.3 mm 1 mps 648 mmHg 96%
    07:00 +12°C° 1.3 mm 1 mps 648 mmHg 96%
    08:00 +13°C° 0.2 mm 1 mps 649 mmHg 90%
    09:00 +15°C° 0.2 mm 1 mps 649 mmHg 84%
    10:00 +18°C° 0.2 mm 1 mps 650 mmHg 79%
    11:00 +16°C° 0.6 mm 1 mps 649 mmHg 84%
    12:00 +15°C° 0.6 mm 1 mps 649 mmHg 89%
    13:00 +14°C° 0.6 mm 1 mps 649 mmHg 95%
    14:00 +15°C° 0.4 mm 1 mps 649 mmHg 90%
    15:00 +16°C° 0.4 mm 1 mps 649 mmHg 86%
    16:00 +16°C° 0.4 mm 1 mps 650 mmHg 81%
    17:00 +16°C° 0.3 mm 1 mps 650 mmHg 85%
    18:00 +14°C° 0.3 mm 0 mps 650 mmHg 88%
    19:00 +13°C° 0.3 mm 0 mps 650 mmHg 91%
    20:00 +13°C° 0.2 mm 0 mps 650 mmHg 92%
    21:00 +12°C° 0.2 mm 0 mps 650 mmHg 92%
    22:00 +12°C° 0.2 mm 0 mps 650 mmHg 93%
    23:00 +12°C° 0.1 mm 0 mps 649 mmHg 93%

    Tomorrow, 20 August, Tuesday

    Time Temperature Precipitation Wind Pressure Humidity
    00:00 +11°C° 0.1 mm 0 mps 649 mmHg 94%
    01:00 +11°C° 0.1 mm 0 mps 649 mmHg 94%
    02:00 +11°C° 0.1 mm 0 mps 649 mmHg 95%
    03:00 +11°C° 0.1 mm 0 mps 649 mmHg 95%
    04:00 +11°C° 0.1 mm 0 mps 649 mmHg 95%
    05:00 +11°C° 0.3 mm 0 mps 649 mmHg 96%
    06:00 +12°C° 0.3 mm 1 mps 649 mmHg 97%
    07:00 +12°C° 0.3 mm 1 mps 649 mmHg 97%
    08:00 +12°C° 0.5 mm 1 mps 649 mmHg 97%
    09:00 +12°C° 0.5 mm 1 mps 649 mmHg 97%
    10:00 +12°C° 0.5 mm 1 mps 650 mmHg 97%
    11:00 +12°C° 0.9 mm 1 mps 650 mmHg 97%
    12:00 +12°C° 0.9 mm 1 mps 650 mmHg 97%
    13:00 +12°C° 0.9 mm 1 mps 650 mmHg 97%
    14:00 +12°C° 1 mm 1 mps 650 mmHg 97%
    15:00 +12°C° 1 mm 1 mps 650 mmHg 97%
    16:00 +12°C° 1 mm 2 mps 650 mmHg 97%
    17:00 +10°C° 3.2 mm 2 mps 650 mmHg 98%
    18:00 +9°C° 3.2 mm 2 mps 650 mmHg 98%
    19:00 +9°C° 3.2 mm 2 mps 650 mmHg 98%
    20:00 +9°C° 1.8 mm 2 mps 650 mmHg 98%
    21:00 +8°C° 1.8 mm 2 mps 651 mmHg 98%
    22:00 +8°C° 1.8 mm 2 mps 651 mmHg 98%
    23:00 +8°C° 2.7 mm 2 mps 651 mmHg 98%

    Day after tomorrow, 21 August, Wednesday

    Time Temperature Precipitation Wind Pressure Humidity
    00:00 +9°C° 2.7 mm 1 mps 650 mmHg 98%
    01:00 +9°C° 2.7 mm 1 mps 650 mmHg 98%
    02:00 +8°C° 2.2 mm 1 mps 650 mmHg 98%
    03:00 +8°C° 2.2 mm 1 mps 650 mmHg 99%
    04:00 +8°C° 2.2 mm 1 mps 650 mmHg 99%
    05:00 +8°C° 3.4 mm 1 mps 650 mmHg 98%
    06:00 +8°C° 3.4 mm 1 mps 650 mmHg 98%
    07:00 +8°C° 3.4 mm 1 mps 650 mmHg 98%
    08:00 +9°C° 0.9 mm 1 mps 651 mmHg 95%
    09:00 +10°C° 0.9 mm 1 mps 651 mmHg 92%
    10:00 +11°C° 0.9 mm 1 mps 651 mmHg 89%
    11:00 +12°C° 0 mm 2 mps 651 mmHg 83%
    12:00 +14°C° 0 mm 2 mps 651 mmHg 77%
    13:00 +15°C° 0 mm 2 mps 652 mmHg 71%
    14:00 +15°C° 0 mm 2 mps 651 mmHg 73%
    15:00 +14°C° 0 mm 2 mps 651 mmHg 75%
    16:00 +14°C° 0 mm 2 mps 651 mmHg 77%
    17:00 +13°C° 0 mm 2 mps 651 mmHg 81%
    18:00 +13°C° 0 mm 2 mps 651 mmHg 85%
    19:00 +12°C° 0 mm 2 mps 651 mmHg 89%
    20:00 +11°C° 0 mm 1 mps 651 mmHg 91%
    21:00 +10°C° 0 mm 1 mps 650 mmHg 94%
    22:00 +9°C° 0 mm 0 mps 650 mmHg 96%
    23:00 +8°C° 0 mm 0 mps 650 mmHg 96%

    22 August, Thursday

    Time Temperature Precipitation Wind Pressure Humidity
    00:00 +8°C° 0 mm 0 mps 650 mmHg 96%
    01:00 +8°C° 0 mm 0 mps 650 mmHg 96%
    02:00 +8°C° 0 mm 0 mps 649 mmHg 96%
    03:00 +7°C° 0 mm 0 mps 649 mmHg 96%
    04:00 +7°C° 0 mm 0 mps 649 mmHg 96%
    05:00 +8°C° 0 mm 0 mps 650 mmHg 95%
    06:00 +9°C° 0 mm 0 mps 650 mmHg 94%
    07:00 +9°C° 0 mm 0 mps 650 mmHg 94%
    08:00 +10°C° 0 mm 0 mps 651 mmHg 91%
    09:00 +12°C° 0 mm 1 mps 651 mmHg 88%
    10:00 +13°C° 0 mm 1 mps 651 mmHg 85%
    11:00 +13°C° 0 mm 1 mps 651 mmHg 84%
    12:00 +13°C° 0 mm 1 mps 651 mmHg 83%
    13:00 +14°C° 0 mm 1 mps 651 mmHg 82%
    14:00 +14°C° 0 mm 1 mps 651 mmHg 82%
    15:00 +14°C° 0 mm 1 mps 651 mmHg 82%
    16:00 +14°C° 0 mm 1 mps 651 mmHg 82%
    17:00 +13°C° 0 mm 1 mps 651 mmHg 85%
    18:00 +13°C° 0 mm 1 mps 651 mmHg 89%
    19:00 +11°C° 0 mm 0 mps 651 mmHg 92%
    20:00 +11°C° 0 mm 0 mps 652 mmHg 93%
    21:00 +11°C° 0 mm 0 mps 652 mmHg 93%
    22:00 +11°C° 0 mm 0 mps 652 mmHg 93%
    23:00 +10°C° 0 mm 0 mps 652 mmHg 93%

    23 August, Friday

    Time Temperature Precipitation Wind Pressure Humidity
    00:00 +10°C° 0 mm 0 mps 651 mmHg 93%
    01:00 +11°C° 0 mm 1 mps 651 mmHg 93%
    02:00 +10°C° 0 mm 1 mps 650 mmHg 94%
    03:00 +10°C° 0 mm 1 mps 650 mmHg 94%
    04:00 +9°C° 0 mm 1 mps 650 mmHg 94%
    05:00 +10°C° 0 mm 1 mps 650 mmHg 91%
    06:00 +11°C° 0 mm 1 mps 650 mmHg 89%
    07:00 +12°C° 0 mm 1 mps 650 mmHg 86%
    08:00 +14°C° 0 mm 1 mps 651 mmHg 80%
    09:00 +16°C° 0 mm 1 mps 651 mmHg 73%
    10:00 +19°C° 0 mm 1 mps 652 mmHg 66%
    11:00 +20°C° 0 mm 1 mps 652 mmHg 64%
    12:00 +21°C° 0 mm 1 mps 652 mmHg 62%
    13:00 +21°C° 0 mm 2 mps 652 mmHg 61%
    14:00 +20°C° 0.4 mm 2 mps 652 mmHg 64%
    15:00 +20°C° 0.4 mm 2 mps 651 mmHg 66%
    16:00 +20°C° 0.4 mm 2 mps 651 mmHg 69%
    17:00 +19°C° 0.5 mm 1 mps 651 mmHg 76%
    18:00 +18°C° 0.5 mm 1 mps 650 mmHg 83%
    19:00 +15°C° 0.5 mm 1 mps 650 mmHg 90%
    20:00 +14°C° 0.1 mm 1 mps 650 mmHg 91%
    21:00 +13°C° 0.1 mm 1 mps 650 mmHg 92%
    22:00 +12°C° 0.1 mm 1 mps 649 mmHg 93%
    23:00 +12°C° 0 mm 1 mps 649 mmHg 92%

    24 August, Saturday

    Time Temperature Precipitation Wind Pressure Humidity
    00:00 +12°C° 0 mm 1 mps 649 mmHg 91%
    01:00 +12°C° 0 mm 1 mps 649 mmHg 91%
    02:00 +11°C° 0 mm 1 mps 648 mmHg 90%
    03:00 +11°C° 0 mm 1 mps 648 mmHg 90%
    04:00 +11°C° 0 mm 1 mps 648 mmHg 89%
    05:00 +12°C° 0 mm 1 mps 648 mmHg 88%
    06:00 +13°C° 0 mm 1 mps 648 mmHg 87%
    07:00 +13°C° 0 mm 1 mps 649 mmHg 85%
    08:00 +15°C° 0 mm 1 mps 649 mmHg 78%
    09:00 +19°C° 0 mm 1 mps 650 mmHg 70%
    10:00 +21°C° 0 mm 1 mps 651 mmHg 63%
    11:00 +21°C° 0.2 mm 1 mps 651 mmHg 61%
    12:00 +22°C° 0.2 mm 1 mps 651 mmHg 59%
    13:00 +22°C° 0.2 mm 1 mps 651 mmHg 58%
    14:00 +22°C° 0.5 mm 1 mps 650 mmHg 60%
    15:00 +22°C° 0.5 mm 1 mps 650 mmHg 63%
    16:00 +21°C° 0.5 mm 1 mps 650 mmHg 65%
    17:00 +20°C° 0.4 mm 1 mps 649 mmHg 71%
    18:00 +18°C° 0.4 mm 1 mps 649 mmHg 78%
    19:00 +15°C° 0.4 mm 2 mps 649 mmHg 84%
    20:00 +15°C° 0 mm 2 mps 649 mmHg 84%
    21:00 +14°C° 0 mm 2 mps 649 mmHg 84%
    22:00 +14°C° 0 mm 2 mps 649 mmHg 84%
    23:00 +13°C° 0 mm 2 mps 648 mmHg 83%
    Show more